Regional Weather Roundup
Issued by NWS

Home | Current Version | Previous Version | Text Only | Print | Product List | Glossary Off
Versions: 1 2 3 4 5 6 7 8 9 10 11 12 13 14 15 16 17 18 19 20 21 22 23 24 25 26 27 28 29 30 31 32 33 34 35 36 37 38 39 40 41 42 43 44 45 46 47 48 49 50

000
ASUS45 KPSR 200900
RWRAZ

PRELIMINARY ARIZONA REGIONAL HOURLY WEATHER ROUNDUP
NATIONAL WEATHER SERVICE PHOENIX AZ
200 AM MST SAT DEC 20 2014

NOTE: FAIR INDICATES FEW OR NO CLOUDS BELOW 12,000 FEET WITH NO
SIGNIFICANT WEATHER AND/OR OBSTRUCTIONS TO VISIBILITY.

AZZ001>003-036-201000-
NORTHWEST ARIZONA

CITY           SKY/WX    TMP DP  RH WIND       PRES   REMARKS
KINGMAN        PTCLDY    36  30  79 VRB6      30.17F WCI  31
$$

AZZ004>008-015-016-018-201000-
NORTH CENTRAL ARIZONA

CITY           SKY/WX    TMP DP  RH WIND       PRES   REMARKS
GRAND CANYON   CLOUDY    28  25  88 CALM      30.18F
PRESCOTT       CLOUDY    35  27  72 CALM      30.17R
FLAGSTAFF      NOT AVBL
PAYSON         CLOUDY    37  27  65 CALM      30.18S
PAGE           CLOUDY    38  30  73 CALM      30.20S
$$

AZZ009>014-017-201000-
NORTHEAST ARIZONA

CITY           SKY/WX    TMP DP  RH WIND       PRES   REMARKS
WINSLOW        NOT AVBL
SAINT JOHNS    PTCLDY    25  23  92 NE5       30.20R WCI  19
WINDOW ROCK    MOCLDY    23  18  81 S3        30.20S
SHOW LOW       CLOUDY    21  19  93 NE3       30.20F
$$

AZZ023-201000-
GREATER PHOENIX AREA

CITY           SKY/WX    TMP DP  RH WIND       PRES   REMARKS
PHOENIX        CLOUDY    51  41  68 E5        30.11F
LUKE AFB       MOCLDY    47  46  94 N5        30.13R
DEER VALLEY    CLOUDY    48  40  73 CALM      30.11F
SCOTTSDALE     CLOUDY    50  42  74 NE3       30.12F
$$

AZZ027-028-201000-
SOUTHWEST MARICOPA COUNTY AND PINAL COUNTY

CITY           SKY/WX    TMP DP  RH WIND       PRES   REMARKS
CASA GRANDE    CLOUDY    45  39  81 CALM      30.13S
GILA BEND      FAIR      43  40  88 CALM      30.13F
$$

AZZ503-504-507>509-201000-
SOUTHEAST ARIZONA

CITY           SKY/WX    TMP DP  RH WIND       PRES   REMARKS
TUCSON         MOCLDY    41  38  89 CALM      30.17R
DAVIS-MONTHAN  CLOUDY    40  37  88 SE5       30.14R
NOGALES        PTCLDY    34  30  85 E8        30.14S WCI  27
SIERRA VISTA   PTCLDY    36  27  69 W5        30.16R WCI  32
SAFFORD        CLEAR     35  33  92 CALM      30.17R
$$

AZZ020-021-025-026-031-201000-
SOUTHWEST ARIZONA

CITY           SKY/WX    TMP DP  RH WIND       PRES   REMARKS
YUMA           NOT AVBL
$$

CAZ031-033-041-043-047-048-061-201000-
SOUTHERN CALIFORNIA

CITY           SKY/WX    TMP DP  RH WIND       PRES   REMARKS
DOWNTOWN L.A.  MOCLDY    53  47  79 CALM      30.17F
L.A. AIRPORT   MOCLDY    54  48  80 NE5       30.17F
SAN DIEGO      PTCLDY    57  50  77 CALM      30.18F
BURBANK        MOCLDY    51  44  77 NW3       30.17S
ONTARIO        PTCLDY    51  46  83 CALM      30.17S
RIVERSIDE      PTCLDY    49  46  90 NE6       30.18S
PALM SPRINGS   CLEAR     54  42  64 W3        30.16F
EL CENTRO NAS  CLEAR     44  39  82 NW5       30.15R
IMPERIAL       CLEAR     45  39  79 W3        30.14R
BLYTHE         PTCLDY    48  45  89 N7        30.15S
$$

NVZ020-UTZ003-201000-
SOUTHERN NEVADA-UTAH

CITY           SKY/WX    TMP DP  RH WIND       PRES   REMARKS
LAS VEGAS      MOCLDY    45  37  73 SW8       30.14S
SALT LAKE CITY LGT RAIN  39  35  86 CALM      30.13S
$$

NMZ009-TXZ055-201000-
NEW MEXICO-WEST TEXAS

CITY           SKY/WX    TMP DP  RH WIND       PRES   REMARKS
ALBUQUERQUE    PTCLDY    32  24  72 N6        30.18S WCI  26
EL PASO        PTCLDY    35  26  69 SE6       30.15S WCI  30
$$


........................KEY........................
SKY/WX - SKY CONDITION/WEATHER
TMP    - TEMPERATURE IN FAHRENHEIT
DP     - DEW POINT IN FAHRENHEIT
RH     - RELATIVE HUMIDITY IN PERCENT
WIND   - DIRECTION AND SPEED IN MILES PER HOUR (MPH)
VRB    - VARIABLE WIND DIRECTION
PRES   - MEAN SEA LEVEL PRESSURE IN INCHES OF MERCURY
         F - FALLING PRESSURE   R - RISING PRESSURE
         S - STEADY PRESSURE
VSB    - VISIBILITY IN MILES
HX     - HEAT INDEX IN FAHRENHEIT
WCI    - WIND CHILL INDEX IN FAHRENHEIT
TC     - TEMPERATURE IN CELSIUS WHICH IS ALSO KNOWN AS
         TEMPERATURE IN CENTIGRADE
AFB    - AIR FORCE BASE
         LUKE AFB IS LUKE AIR FORCE BASE
         DAVIS-MONTHAN IS DAVIS-MONTHAN AIR FORCE BASE
NAS    - NAVAL AIR STATION
         EL CENTRO NAS IS EL CENTRO NAVAL AIR STATION
N/A    - NOT AVAILABLE


USA.gov is the U.S. government's official web portal to all federal, state and local government web resources and services.